Simultaneous Nadir Overpasses (SNOs) Predictions

Prediction of SNOs between GOES-16 and TERRA Satellite Orbit:

Table of predicted SNOs for the next 14.0 days since TLE Epoch: 12/14/2024
Index Date Time (GOES-16) GOES-16 Lat,Lon TERRA Lat,Lon Distance(km) Time Diff (sec)
1 12/16/2024 02:20:15 0.02, -75.17 0.77, -71.66 399.79 80
2 12/16/2024 14:39:53 -0.02, -75.20 0.25, -76.43 139.89 80
3 12/18/2024 14:24:10 -0.01, -75.21 -0.68, -72.00 364.78 80
4 12/19/2024 02:43:59 0.01, -75.18 -0.32, -76.82 186.04 80
5 12/21/2024 02:22:55 0.01, -75.20 0.58, -72.38 319.96 80
6 12/21/2024 14:42:34 -0.01, -75.24 0.42, -77.16 219.03 80
7 12/23/2024 14:26:50 -0.00, -75.27 -0.52, -72.73 288.26 80
8 12/24/2024 02:46:39 0.00, -75.25 -0.47, -77.55 261.90 80
9 12/26/2024 02:25:34 -0.00, -75.28 0.45, -73.11 246.11 80
10 12/26/2024 14:45:13 0.00, -75.32 0.53, -77.89 292.51 80
